sat.trackr.live / text

‹ back to catalog

STARLINK-6373

NORAD 57345 · 2023-099T

PAYLOAD ACTIVE UNKNOWN

§ Identity

Operator
Country
US
Launch date
2023-07-16
Launch site
AFETR
Launch vehicle
Mass (kg)
RCS (m²)

Purposes: comms

External: N2YO · Heavens-Above · Gunter

§ Orbital elements

Epoch: 2026-05-24T20:09:33.313824Z

Period
94.27 min
Inclination
43.0020°
Eccentricity
0.0002028
Mean motion
15.27578025 rev/d
Perigee alt
481.7 km
Apogee alt
484.4 km
Semi-major
6,861.2 km
B*
2.6805e-5
RAAN
185.6685°
Arg perigee
282.3323°
Mean anomaly
77.7302°
Rev number
15,768

§ Raw data

STARLINK-63731 57345U 23099T   26144.83996891  .00000475  00000+0  26805-4 0  99972 57345  43.0020 185.6685 0002028 282.3323  77.7302 15.27578025157684

JSON: /api/v1/satellites/57345 · /tle

For live sub-satellite position, see the globe view (requires WebGL).

§ Visibility from observer

Set your observer location to see the next 7 days of passes ≥ 10°. The values pass through the URL so the page stays shareable.

No JS? Fill the form by hand. The geolocation button needs JavaScript.